PDT,Max TemperatureF,Mean TemperatureF,Min TemperatureF,Max Dew PointF,MeanDew PointF,Min DewpointF,Max Humidity, Mean Humidity, Min Humidity, Max Sea Level PressureIn, Mean Sea Level PressureIn, Min Sea Level PressureIn, Max VisibilityMiles, Mean VisibilityMiles, Min VisibilityMiles, Max Wind SpeedMPH, Mean Wind SpeedMPH, Max Gust SpeedMPH,PrecipitationIn, CloudCover, Events, WindDirDegrees
2013-9-1,75,64,53,52,46,40,93,60,33,29.88,29.85,29.82,10,10,10,9,4,17,0.00,0,,252
2013-9-2,66,58,53,52,50,44,96,78,58,30.01,29.93,29.84,10,10,10,12,7,,0.00,6,,195
2013-9-3,70,60,51,50,44,41,93,62,36,30.01,29.96,29.91,10,10,10,9,3,,0.00,3,,221
2013-9-4,66,57,50,52,51,49,100,91,60,30.12,30.05,29.96,10,6,0,8,5,,0.00,6,Fog,350
2013-9-5,59,52,46,52,49,46,100,96,81,30.18,30.07,29.95,10,3,0,13,4,21,0.48,7,Fog-Rain,340
2013-9-6,66,55,46,52,48,45,97,79,54,30.24,30.16,30.05,10,10,10,13,4,24,0.00,4,,22
2013-9-7,77,65,55,52,47,39,74,55,33,30.03,29.96,29.90,10,10,10,14,4,21,0.00,0,,63
2013-9-8,75,66,57,53,48,42,78,56,36,29.99,29.95,29.91,10,10,10,16,8,23,0.00,0,,7
2013-9-9,79,70,61,54,49,41,78,53,27,29.96,29.90,29.83,10,10,10,15,9,22,0.00,0,,14
2013-9-10,89,76,64,51,44,33,61,34,16,29.83,29.79,29.75,10,10,10,13,6,,0.00,0,,75
2013-9-11,87,76,64,55,46,38,63,36,19,29.90,29.83,29.76,10,10,5,10,4,,0.00,0,,111
2013-9-12,82,72,63,52,48,38,63,46,32,29.93,29.90,29.87,10,10,10,12,6,16,0.00,0,,356
2013-9-13,82,72,62,55,50,43,75,52,26,29.91,29.84,29.78,10,10,10,12,6,18,0.00,0,,4
2013-9-14,84,72,63,56,51,44,70,51,28,29.78,29.72,29.65,10,10,10,10,5,,0.00,0,,11
2013-9-15,71,58,48,56,52,42,100,88,38,29.97,29.80,29.65,10,5,0,10,3,,0.00,2,Fog,328
2013-9-16,64,55,46,50,47,46,100,91,52,30.02,29.96,29.85,10,4,0,13,3,20,0.00,5,Fog,344
2013-9-17,52,47,44,49,47,43,100,97,89,30.07,29.95,29.80,10,4,0,9,4,,0.24,7,Fog-Rain,343
2013-9-18,63,52,42,45,42,38,100,79,40,30.10,30.05,29.96,10,8,0,8,5,,0.00,3,Fog,24
2013-9-19,71,60,51,46,40,33,72,51,26,29.95,29.87,29.78,10,10,10,10,7,16,0.00,0,,107
2013-9-20,64,55,48,52,47,23,100,86,32,29.81,29.74,29.67,10,3,0,20,8,30,0.56,5,Fog-Rain,189
2013-9-21,48,45,42,49,46,43,100,99,93,29.89,29.79,29.68,10,2,0,12,7,18,0.29,8,Fog-Rain,206
2013-9-22,48,45,42,48,45,42,100,100,93,29.98,29.91,29.87,10,2,0,21,10,32,0.22,8,Fog-Rain,199
2013-9-23,51,48,44,51,47,44,100,99,86,30.06,30.02,29.96,10,3,0,10,4,21,0.06,8,Fog-Rain,235
2013-9-24,48,42,37,46,43,37,100,98,86,30.02,29.97,29.91,10,4,0,6,3,,0.30,8,Fog-Rain,261
2013-9-25,44,39,35,43,39,36,100,99,93,30.04,29.94,29.90,10,1,0,6,3,,0.17,8,Fog-Rain,319
2013-9-26,50,42,37,43,39,36,100,95,68,30.19,30.08,30.02,10,4,0,10,4,16,0.00,5,Fog,13
2013-9-27,54,46,39,43,40,35,100,85,50,30.20,30.16,30.07,10,9,0,14,6,,0.00,5,Fog,156
2013-9-28,55,49,46,50,45,40,100,89,74,30.10,29.90,29.71,10,8,0,29,17,53,0.38,7,Fog-Rain,193
2013-9-29,50,44,39,50,44,39,100,99,87,29.84,29.79,29.68,10,3,0,29,13,52,1.90,8,Fog-Rain,202
2013-9-30,48,44,39,48,42,36,100,96,74,30.08,29.94,29.77,10,5,0,14,8,28,0.17,7,Fog-Rain,238